GFSGL_sfc_dewp_057.txt.gz
Dewpoint
26 25 24 22 21 20 19 19 17 17 17 17 18 19 19 18 18 17 18 17 17 17 16 16 15 16 15 13 14 15 13 13 13 11 12 12 12 13 14 15 16 15 15
26 25 23 22 21 20 18 17 18 16 17 17 17 18 18 18 17 15 15 15 15 15 15 14 13 12 12 13 13 12 12 12 12 11 11 11 12 14 15 15 15 14 15
25 24 23 22 20 19 18 17 17 16 16 17 16 16 16 16 15 15 14 14 14 13 14 14 13 14 14 13 12 11 11 10 13 13 11 13 14 15 15 16 13 14 12
24 23 22 21 20 18 18 17 17 17 16 16 16 15 14 14 13 13 13 13 13 13 14 14 14 14 14 14 13 13 13 15 15 14 13 13 14 15 16 13 11 12 13
22 22 22 22 21 20 19 19 19 18 16 16 16 15 14 12 11 12 10 14 13 13 14 14 15 16 17 16 13 15 16 15 15 14 14 14 15 15 14 13 12 14 12
22 22 22 22 22 22 21 20 19 18 18 17 16 15 14 8 16 20 13 13 14 11 13 15 14 18 18 20 21 21 19 14 5 5 14 16 16 15 14 12 15 12 9
23 24 24 24 23 23 22 20 19 18 17 16 16 16 14 13 19 22 22 13 14 13 13 13 13 12 16 12 16 19 19 21 21 17 17 18 17 15 14 15 14 12 10
24 25 24 24 24 23 22 20 20 19 18 16 17 16 15 14 20 23 25 18 15 15 15 15 14 14 14 13 12 14 13 13 13 14 17 17 17 18 21 18 14 10 9
23 24 24 24 24 23 23 23 23 22 22 21 20 21 20 18 21 23 23 22 19 18 17 16 15 14 17 19 17 15 15 16 19 22 23 25 26 23 19 14 4 -4 3
23 24 24 25 26 26 25 25 25 24 24 23 24 24 23 22 21 24 23 23 20 19 18 16 21 17 19 20 18 15 14 16 17 16 16 17 15 11 15 9 9 3 5
25 25 26 26 27 27 27 27 27 26 25 25 24 23 22 21 20 23 25 23 21 18 18 17 17 20 22 22 23 20 19 20 18 19 12 11 9 9 8 8 8 8 5
27 27 27 28 29 29 29 29 28 27 26 25 23 21 18 18 19 21 24 25 24 18 18 17 17 20 22 23 22 23 24 24 17 6 5 5 6 6 7 8 8 8 7
29 30 31 31 31 31 30 28 27 26 25 23 19 19 17 15 15 21 22 23 24 23 21 20 22 23 23 23 24 24 24 18 11 5 7 8 5 6 7 7 7 7 7
27 25 25 26 25 26 27 24 23 21 21 20 18 18 14 12 13 14 16 17 21 22 22 20 21 23 23 25 21 21 21 17 14 11 9 6 7 6 4 5 3 4 2
20 18 18 19 20 17 18 19 20 18 21 19 17 15 11 10 11 15 12 7 4 13 13 2 3 10 13 14 15 15 15 14 12 11 9 5 4 4 3 3 2 -1 -3
15 15 16 17 16 17 16 14 20 19 21 21 19 14 6 15 17 18 19 20 21 22 14 12 12 12 13 12 12 12 11 9 10 11 7 4 3 2 -0 -2 -0 -5 -4
16 14 13 13 13 12 10 13 11 15 21 21 21 22 21 15 20 22 23 23 22 17 10 6 3 4 4 7 9 10 10 11 9 8 7 3 1 -2 -5 -7 -3 -3 -6
8 9 8 7 8 6 7 6 7 9 9 4 17 19 19 18 17 16 15 11 -2 -0 -6 -10 -12 -11 -9 -7 -4 1 3 2 4 4 2 -2 -3 -4 -12 -9 -5 -8 -7
7 4 3 2 1 3 2 1 0 -1 -2 -6 -4 5 3 10 11 11 9 -12 -17 -18 -19 -19 -19 -18 -15 -14 -11 -10 -5 -3 -2 -3 -7 -8 -7 -10 -17 -8 -7 -6 -5
0 2 0 -0 -1 -1 0 -1 -2 -2 -5 -5 -7 -7 -9 -8 -13 -15 -19 -21 -22 -23 -23 -23 -22 -24 -24 -20 -14 -15 -16 -17 -15 -10 -9 -8 -8 -9 -8 -10 -8 -7 -12
-5 -4 -3 -4 -5 -6 -7 -5 -5 -6 -7 -13 -11 -4 3 -10 -14 -17 -19 -21 -23 -25 -24 -26 -25 -25 -25 -21 -19 -20 -23 -17 -16 -8 -8 -9 -9 -14 -10 -8 -7 -10 -9
-8 -11 -10 -10 -9 -8 -10 -8 -9 -9 -10 -9 -11 -8 4 -11 -17 -19 -22 -24 -25 -25 -25 -26 -25 -23 -21 -20 -19 -18 -17 -15 -18 -8 -7 -10 -11 -11 -12 -12 -12 -11 -10
-10 -10 -11 -14 -12 -11 -14 -17 -16 -15 -16 -17 -15 -13 -17 -18 -17 -19 -22 -25 -27 -25 -25 -28 -26 -21 -20 -22 -20 -13 -11 -14 -14 -12 -11 -10 -11 -12 -16 -17 -22 -16 -13
-13 -13 -12 -14 -15 -16 -17 -18 -16 -14 -16 -18 -19 -19 -15 -20 -25 -23 -24 -24 -26 -26 -27 -26 -24 -21 -19 -19 -21 -19 -15 -12 -16 -14 -11 -11 -12 -14 -18 -28 -24 -17 -12
-17 -16 -16 -16 -18 -18 -17 -18 -17 -20 -20 -18 -21 -22 -24 -24 -24 -26 -26 -26 -25 -25 -20 -20 -19 -19 -17 -16 -17 -19 -18 -6 -9 -13 -16 -15 -15 -19 -29 -28 -27 -23 -15
-17 -16 -18 -18 -19 -21 -20 -18 -19 -20 -22 -20 -19 -20 -19 -21 -21 -22 -23 -24 -21 -19 -19 -19 -19 -18 -18 -16 -17 -13 -12 -5 -8 -11 -16 -16 -19 -25 -28 -27 -28 -23 -18

GFSGL_sfc_dewp_060.txt.gz
Dewpoint
31 30 28 26 24 22 21 19 18 17 18 18 18 18 18 18 18 18 18 18 17 17 17 17 16 17 15 14 14 15 15 15 14 11 12 12 12 13 14 16 17 16 16
30 28 27 25 23 22 19 18 19 17 18 18 18 18 18 18 18 17 16 17 16 15 15 15 14 13 13 12 13 13 12 13 12 11 11 11 12 13 15 16 15 13 14
28 27 26 24 23 21 19 18 17 17 17 18 18 18 17 17 16 16 15 15 15 14 14 13 13 14 13 13 12 11 12 9 12 13 11 13 13 15 15 16 14 13 12
27 27 26 24 22 20 19 18 16 16 16 16 17 17 16 16 14 14 13 14 13 13 14 14 13 13 14 13 13 13 13 13 14 13 13 13 14 15 16 15 13 12 12
27 26 26 25 22 20 19 18 17 17 15 15 16 16 15 14 12 13 11 15 14 13 14 13 14 15 17 16 14 15 14 15 15 14 13 13 14 15 16 14 13 13 14
26 26 25 24 23 22 21 20 18 17 17 17 17 15 14 10 18 20 14 14 14 11 12 14 14 19 19 21 21 20 17 15 6 7 14 14 15 16 15 14 13 14 11
26 26 25 25 24 22 21 20 18 17 17 17 16 16 15 14 21 23 22 14 14 11 11 12 13 13 17 15 19 23 24 25 23 16 16 16 16 17 16 15 15 15 12
26 26 25 24 24 23 21 20 18 18 17 17 17 17 16 15 21 25 27 18 15 14 13 13 13 13 14 14 13 14 14 14 15 15 15 16 18 18 18 19 18 10 9
25 25 25 25 25 23 22 20 20 20 19 20 22 21 20 21 23 26 27 25 19 16 14 14 14 14 17 20 18 15 16 16 17 21 22 23 24 28 28 17 1 -4 3
24 25 25 26 26 24 23 23 24 24 24 24 24 23 23 25 27 28 27 28 24 21 20 17 21 17 20 21 20 19 16 16 16 15 18 20 21 16 20 18 12 0 4
25 25 25 26 26 26 26 26 26 26 25 25 24 25 25 25 26 27 32 29 23 22 21 20 18 22 24 25 25 21 18 19 18 20 17 16 15 14 13 12 9 8 7
25 25 26 27 27 28 28 27 27 26 25 25 24 24 25 25 25 29 31 33 26 23 21 20 19 22 24 24 24 24 25 24 24 15 10 11 11 12 11 11 9 9 9
25 26 28 29 29 29 28 27 27 27 27 26 25 25 24 21 22 29 27 26 26 25 23 22 22 23 24 25 25 25 24 25 22 13 11 11 11 11 11 9 9 9 8
28 28 29 29 29 30 30 29 29 28 27 27 25 24 24 17 17 17 20 22 24 24 23 19 22 24 25 25 20 20 20 20 19 16 15 15 11 9 8 8 5 3 -1
26 25 27 27 28 26 24 26 26 22 26 25 24 23 18 16 16 18 17 13 12 15 8 -0 3 6 8 11 12 15 16 16 15 13 13 12 8 8 6 6 4 -0 -7
20 20 20 20 19 19 18 16 21 21 24 22 22 18 11 17 20 22 22 21 20 19 3 -1 2 7 10 11 9 8 7 6 7 7 7 6 7 6 4 3 2 -4 -10
17 15 15 15 16 15 14 16 17 20 24 23 23 20 19 18 20 20 20 22 21 18 5 -2 -2 -1 -0 3 3 2 1 3 2 2 5 6 6 3 1 -1 -2 -4 -10
12 12 12 11 11 10 11 12 13 16 16 11 22 23 24 21 21 21 21 13 -3 -3 -7 -3 -4 -10 -10 -10 -9 -8 -7 -6 -5 -3 -0 -3 -4 -3 -5 -6 -6 -10 -7
9 8 7 6 5 6 6 6 6 6 6 1 3 8 7 17 17 15 9 -8 -12 -14 -18 -19 -21 -20 -18 -19 -19 -19 -18 -15 -14 -16 -16 -14 -10 -10 -12 -9 -6 -5 -5
2 5 1 2 -0 0 1 0 -1 -1 -2 -2 -3 -7 -11 -9 -14 -18 -20 -22 -23 -23 -24 -22 -24 -27 -26 -26 -25 -24 -22 -24 -24 -23 -21 -20 -18 -15 -14 -15 -8 -7 -7
-5 -4 -3 -4 -5 -6 -7 -4 -4 -5 -6 -10 -11 -6 2 -14 -18 -19 -21 -23 -23 -23 -23 -26 -27 -29 -30 -29 -27 -27 -28 -23 -25 -24 -24 -22 -20 -21 -19 -9 -8 -7 -7
-9 -10 -9 -11 -9 -8 -10 -9 -10 -9 -12 -10 -9 -6 7 -12 -18 -19 -20 -22 -24 -25 -28 -29 -29 -29 -25 -25 -24 -25 -24 -22 -26 -26 -22 -20 -21 -21 -17 -10 -10 -9 -10
-9 -9 -11 -14 -12 -12 -13 -17 -15 -14 -15 -16 -15 -12 -17 -19 -19 -19 -20 -25 -28 -28 -30 -32 -28 -24 -24 -24 -23 -19 -18 -18 -18 -22 -19 -22 -22 -20 -15 -13 -12 -15 -19
-12 -12 -12 -16 -17 -17 -17 -20 -18 -16 -17 -19 -20 -20 -17 -21 -24 -23 -25 -27 -28 -29 -30 -28 -25 -23 -22 -23 -26 -26 -23 -19 -25 -19 -16 -18 -20 -15 -12 -14 -16 -23 -23
-17 -15 -16 -18 -21 -20 -20 -20 -19 -21 -21 -19 -20 -19 -20 -23 -21 -24 -25 -26 -27 -28 -22 -22 -22 -22 -20 -19 -20 -24 -23 -10 -16 -17 -20 -17 -19 -18 -17 -23 -29 -30 -26
-19 -18 -21 -21 -22 -24 -23 -21 -21 -19 -19 -18 -19 -21 -22 -21 -21 -23 -23 -25 -22 -20 -20 -20 -21 -20 -20 -19 -19 -15 -15 -7 -12 -14 -18 -19 -21 -21 -27 -28 -31 -29 -26

GFSGL_sfc_dewp_063.txt.gz
Dewpoint
36 35 33 31 30 29 27 24 22 20 19 18 18 19 19 18 18 18 19 18 18 18 18 17 15 16 14 14 14 14 13 11 8 9 10 10 10 10 12 15 17 16 15
35 34 32 29 27 26 26 22 21 19 19 18 18 18 18 18 18 17 16 17 17 16 16 15 15 13 12 12 12 11 12 12 10 8 9 10 10 12 13 15 15 14 13
34 33 31 29 27 26 25 22 21 19 18 18 18 18 17 17 17 17 16 16 15 14 15 15 14 15 14 12 11 10 11 9 11 10 9 12 12 14 14 15 16 15 12
32 32 31 29 28 27 24 21 20 18 17 17 17 17 16 16 15 15 15 16 16 16 15 14 14 14 15 14 12 13 13 13 12 11 10 11 12 14 16 15 15 15 13
32 31 31 29 28 26 24 22 21 19 17 16 17 17 16 15 14 15 14 17 15 15 15 13 13 15 17 16 13 15 15 15 14 14 12 12 13 14 15 15 15 15 14
31 31 30 28 27 26 24 22 20 18 18 18 18 17 16 12 20 21 16 16 15 12 13 14 13 20 19 21 21 19 17 18 17 16 14 14 14 15 16 16 16 14 13
31 31 29 28 27 26 24 22 19 18 17 17 18 17 17 16 23 25 21 15 15 13 13 12 12 13 20 17 22 24 24 24 20 15 17 17 17 17 17 17 16 16 15
30 30 29 27 26 25 23 21 20 18 17 17 18 18 18 18 27 27 25 17 18 16 13 13 12 13 15 15 14 17 17 18 21 22 22 21 19 19 19 19 20 18 15
29 28 28 27 26 24 24 22 20 20 19 20 21 21 20 19 26 28 28 26 22 21 21 13 13 13 17 21 18 18 18 17 17 21 22 22 23 24 25 25 17 15 15
27 27 26 26 26 24 24 23 23 23 22 22 25 25 23 23 26 29 30 30 28 27 26 21 21 16 19 21 21 22 19 19 19 20 19 20 21 21 24 24 21 16 13
26 26 26 26 25 25 25 24 24 25 25 25 25 25 25 25 26 30 33 30 29 29 27 24 21 24 25 25 24 24 22 22 22 22 21 19 19 20 19 20 18 17 13
25 25 24 25 26 26 25 26 26 26 25 24 24 24 25 25 27 31 34 34 32 29 28 24 23 24 25 26 26 26 26 26 26 26 23 20 17 16 16 17 17 17 15
24 24 25 26 26 27 27 26 26 26 25 24 24 24 24 24 26 31 32 34 34 32 30 25 24 25 26 26 26 26 25 26 25 23 20 17 16 16 16 14 14 14 13
25 26 27 27 28 28 28 27 27 27 26 25 25 25 26 26 24 24 28 30 31 32 31 27 26 26 26 25 23 23 22 21 20 19 17 17 15 13 12 12 10 9 7
28 28 28 29 29 28 28 28 28 28 28 28 28 28 28 23 23 24 24 22 22 23 14 14 15 15 17 15 15 16 16 15 15 15 14 12 11 10 9 9 7 6 3
25 26 26 26 26 24 23 21 26 27 30 28 27 26 19 22 24 24 25 24 22 22 13 12 11 12 13 12 10 10 10 10 10 9 8 8 7 6 5 6 5 2 0
22 20 20 20 21 20 20 20 20 23 26 24 23 23 22 21 22 23 24 24 24 23 12 10 10 8 6 6 6 5 3 3 4 3 3 3 3 3 3 2 1 0 -1
15 15 16 15 15 15 16 15 18 21 21 19 24 22 22 22 22 22 23 18 10 7 4 3 3 2 1 0 -1 -1 -2 -2 -0 0 -1 -1 -2 -1 -1 -2 -2 -3 -4
14 12 11 10 11 11 12 12 12 13 12 8 10 15 11 23 22 16 12 3 3 -1 -5 -3 -5 -5 -5 -6 -6 -7 -8 -6 -5 -5 -5 -6 -6 -5 -6 -6 -5 -5 -5
7 7 5 5 5 5 5 6 5 6 6 5 4 2 0 6 -0 -6 -9 -8 -6 -7 -8 -8 -11 -11 -10 -10 -10 -11 -9 -10 -8 -9 -8 -8 -8 -8 -6 -9 -8 -7 -6
1 1 0 -0 -1 -1 -0 1 1 2 3 1 -0 -1 5 -2 -4 -7 -7 -8 -8 -11 -12 -11 -13 -13 -14 -14 -14 -12 -13 -9 -11 -12 -12 -10 -11 -10 -10 -8 -8 -8 -7
-1 -3 -3 -4 -3 -3 -5 -3 -3 -3 -4 -4 -6 -3 11 -4 -7 -9 -12 -13 -14 -14 -15 -13 -14 -15 -14 -14 -13 -12 -12 -12 -12 -13 -13 -14 -12 -11 -12 -10 -10 -9 -9
-6 -6 -8 -11 -10 -10 -11 -12 -10 -10 -10 -10 -9 -7 -8 -10 -10 -11 -11 -14 -15 -15 -18 -19 -16 -17 -17 -19 -17 -13 -12 -12 -11 -13 -12 -13 -13 -12 -12 -11 -12 -12 -12
-10 -10 -11 -15 -14 -14 -13 -14 -13 -14 -13 -14 -15 -14 -11 -14 -14 -12 -13 -15 -17 -19 -21 -21 -20 -19 -17 -18 -18 -19 -17 -15 -15 -15 -14 -13 -13 -14 -12 -12 -13 -13 -14
-15 -15 -15 -16 -19 -18 -18 -19 -16 -20 -19 -15 -16 -16 -16 -16 -17 -18 -18 -19 -20 -19 -18 -20 -20 -18 -17 -17 -17 -18 -19 -11 -11 -16 -17 -15 -14 -15 -15 -13 -15 -17 -19
-17 -17 -21 -21 -21 -23 -22 -19 -20 -19 -18 -17 -17 -18 -18 -17 -17 -18 -19 -21 -20 -19 -18 -18 -18 -18 -17 -16 -15 -13 -15 -9 -12 -15 -15 -14 -15 -16 -17 -18 -21 -21 -20

GFSGL_sfc_dewp_069.txt.gz
Dewpoint
44 45 45 45 46 47 46 46 46 45 39 35 33 31 29 30 31 32 32 29 29 27 26 24 22 22 21 21 23 22 19 20 23 15 14 19 18 18 15 18 21 19 19
44 44 44 45 45 45 45 44 43 38 34 33 30 28 26 25 27 28 27 25 26 22 23 22 19 17 20 20 22 20 20 19 20 17 15 15 15 19 19 19 17 15 19
43 43 43 44 43 43 42 41 37 33 30 28 27 26 25 24 23 25 23 23 22 21 20 19 18 20 20 22 20 18 21 15 16 17 16 16 16 18 18 19 19 21 19
43 43 42 43 43 42 41 39 34 32 28 27 26 24 23 22 21 23 20 21 19 19 19 18 18 18 22 23 19 22 21 19 18 16 15 14 15 17 17 17 18 21 19
42 42 41 42 42 41 40 38 34 31 28 26 24 22 20 20 19 20 19 21 19 19 19 19 18 23 27 23 18 22 21 22 21 20 15 14 15 16 16 18 17 19 20
41 40 41 41 40 39 37 34 31 29 27 25 23 21 19 16 23 27 20 20 18 17 18 19 22 26 26 25 23 25 23 25 25 24 20 17 17 17 18 18 18 19 17
40 40 39 39 37 36 33 31 29 27 26 24 22 21 20 18 27 27 26 19 18 18 17 19 24 25 24 24 27 27 23 24 24 23 22 20 18 18 19 21 21 20 19
39 39 38 37 36 34 32 30 29 27 25 24 23 22 21 20 29 29 27 20 20 19 19 21 25 23 21 19 20 23 23 23 23 22 22 20 19 22 25 24 23 22 21
36 37 36 36 35 33 31 30 29 28 26 26 26 25 24 23 30 30 23 23 22 20 25 28 29 27 28 30 22 22 22 22 24 27 27 27 27 27 25 25 24 24 22
34 35 36 35 34 32 31 30 30 29 27 25 26 26 25 25 29 29 27 23 26 21 28 30 30 30 32 32 26 24 23 22 22 23 21 21 22 23 24 24 24 22 21
33 33 33 33 33 32 32 30 29 27 26 26 25 26 26 28 30 32 30 28 26 26 25 28 29 33 33 33 32 29 26 26 27 25 24 24 24 23 23 23 24 23 21
31 31 31 31 31 31 30 29 29 27 25 25 25 25 26 28 31 33 32 29 29 27 26 27 30 32 34 34 33 33 32 29 28 27 26 26 26 26 25 23 21 21 20
29 28 29 30 30 30 29 28 27 27 25 24 23 24 25 27 30 34 34 32 31 30 31 32 32 33 34 34 35 35 32 31 29 28 27 26 23 20 18 17 19 20 18
28 28 28 28 29 29 29 28 28 27 26 25 26 26 26 26 27 30 32 32 32 32 33 32 33 32 33 32 30 31 30 30 28 26 24 22 19 18 17 17 14 11 8
28 28 29 28 28 28 29 29 29 30 30 29 29 29 27 25 26 27 30 31 32 32 32 31 30 30 29 28 27 26 26 22 21 21 19 18 17 16 13 11 9 7 3
28 29 29 30 30 29 29 29 33 32 33 32 32 31 31 32 31 30 28 29 30 32 27 26 25 26 25 24 22 21 21 18 18 17 15 14 12 10 8 7 6 3 0
30 29 29 28 27 27 27 28 24 28 30 31 33 33 30 30 32 31 30 31 33 33 26 24 25 24 24 23 21 19 16 15 11 10 10 8 8 7 4 3 3 2 -2
28 29 28 28 27 27 27 27 27 26 25 24 25 24 24 25 26 27 28 28 24 25 25 22 21 22 21 18 16 14 12 8 7 7 6 4 1 1 -0 -1 -0 -5 -5
24 23 24 24 25 25 25 26 27 26 23 22 23 23 24 25 25 25 25 24 22 18 17 17 17 16 15 14 12 10 9 7 5 3 1 -2 -3 -4 -5 -4 -3 -5 -6
17 18 20 21 21 21 21 21 21 22 21 22 22 19 18 20 19 14 13 14 14 14 12 11 10 9 9 8 7 4 2 -1 -1 -3 -2 -3 -4 -4 -6 -8 -8 -7 -8
16 16 16 17 17 17 19 18 18 19 19 18 12 14 16 17 13 11 10 9 8 7 5 6 4 3 2 1 0 -1 -2 0 -0 -1 -2 -6 -8 -10 -9 -5 -8 -9 -11
12 12 12 11 11 11 12 12 13 13 13 11 9 11 13 10 9 8 6 4 3 2 1 1 0 -1 -3 -3 -2 -2 -2 -3 -2 -3 -6 -9 -10 -10 -11 -9 -10 -9 -10
10 9 8 8 8 9 8 8 8 9 8 7 7 7 7 6 4 3 1 0 -2 -3 -4 -5 -4 -5 -5 -6 -3 -2 -3 -3 -4 -6 -8 -11 -12 -11 -11 -11 -11 -13 -14
5 5 3 2 3 3 3 3 2 -1 1 2 2 2 1 0 -1 -2 -3 -3 -4 -6 -7 -9 -9 -8 -6 -5 -5 -6 -6 -7 -7 -9 -11 -11 -12 -12 -13 -12 -12 -13 -13
1 0 -0 -0 -0 0 1 0 -0 -1 -1 -1 -1 -1 -2 -3 -4 -4 -5 -6 -9 -8 -8 -9 -9 -7 -8 -10 -10 -8 -6 -3 -8 -9 -12 -13 -14 -15 -16 -15 -15 -13 -12
-0 -1 -0 -0 -1 -1 -1 -1 -1 -2 -3 -2 -2 -3 -4 -5 -5 -5 -6 -8 -9 -10 -11 -9 -9 -9 -9 -9 -9 -7 -7 -2 -9 -7 -11 -11 -11 -11 -14 -16 -19 -18 -19

GFSGL_sfc_dewp_072.txt.gz
Dewpoint
43 43 45 45 45 46 47 46 45 44 43 42 41 41 38 39 41 43 41 39 39 36 32 29 27 26 23 22 21 20 18 20 17 13 16 20 20 18 13 19 18 18 19
43 43 44 44 44 45 45 44 43 42 39 38 36 36 35 36 37 39 38 36 34 32 30 27 25 21 21 20 20 19 18 19 21 15 14 15 16 17 18 17 18 16 18
43 43 43 43 43 44 43 43 41 39 35 33 33 33 32 33 34 36 36 33 33 31 28 26 22 21 20 21 20 19 19 17 18 19 15 16 17 18 16 17 18 20 19
42 43 42 42 43 43 42 41 38 35 32 30 31 31 29 28 29 29 30 30 30 28 26 23 21 18 19 21 20 21 20 20 18 18 16 15 15 17 18 17 17 21 20
42 42 43 42 42 41 39 37 34 32 31 30 28 28 27 26 24 27 27 28 27 25 23 21 20 21 25 24 20 22 21 22 21 21 17 15 15 17 16 18 18 18 20
41 41 41 38 37 37 36 35 32 31 29 28 27 26 24 23 28 31 28 26 24 22 22 20 24 28 29 26 24 24 23 24 24 24 22 19 17 17 18 18 18 19 19
36 35 34 35 35 35 34 32 30 29 27 26 25 24 24 23 29 32 29 24 22 22 20 22 27 28 27 25 26 26 25 26 27 27 24 20 19 19 19 20 21 21 20
34 33 32 33 33 31 31 30 29 28 26 25 25 24 24 23 29 31 30 22 22 21 21 25 27 27 27 26 27 27 27 28 29 24 24 22 21 20 24 24 24 22 21
33 33 32 32 31 30 30 28 27 27 26 28 27 26 26 24 29 32 26 23 23 22 25 28 29 28 29 28 27 27 27 28 28 27 26 28 30 27 27 24 20 18 21
31 32 32 30 29 29 29 28 26 26 29 27 28 28 27 26 29 31 27 24 24 25 27 29 30 30 30 29 27 26 25 24 23 25 26 28 27 24 25 25 21 19 18
29 29 28 28 26 26 25 25 26 28 27 27 26 27 27 26 30 32 28 26 26 26 26 28 30 33 34 34 31 27 26 27 27 26 25 24 24 23 23 23 23 21 16
25 26 25 23 26 27 28 29 28 27 26 25 25 25 26 28 30 33 32 31 31 27 26 28 30 35 35 35 34 32 33 33 29 26 25 24 24 24 23 22 21 21 20
25 23 22 22 24 24 24 27 26 26 25 24 24 24 25 27 30 34 34 34 33 29 28 28 30 33 34 34 35 35 32 31 30 26 25 25 24 21 20 20 19 17 16
26 26 24 23 24 24 25 24 25 25 25 24 24 24 24 25 26 30 32 32 31 31 31 31 32 32 33 33 31 33 31 30 28 27 25 21 19 18 16 16 10 9 2
26 27 27 27 28 27 27 25 23 23 26 25 27 27 24 24 26 30 31 31 32 31 32 31 30 29 29 29 27 27 25 23 22 20 19 17 16 16 13 8 7 1 -3
25 26 27 27 26 23 23 28 32 31 33 32 32 30 29 29 30 31 33 34 34 35 29 27 28 28 27 25 24 22 21 20 19 15 10 9 9 7 6 4 2 -4 -6
28 27 27 25 24 24 25 25 24 29 32 33 33 33 31 32 30 30 31 32 33 32 26 26 24 22 21 23 22 20 17 16 12 12 11 6 5 6 3 1 3 -1 -8
28 28 27 26 25 25 24 23 22 22 21 21 27 28 29 30 32 33 32 31 27 25 23 21 20 21 20 18 16 13 10 6 4 4 2 0 -0 -1 -2 -2 1 -9 -12
22 22 23 24 24 24 25 25 24 22 20 20 19 21 24 26 25 25 24 21 19 16 16 15 15 12 10 9 3 5 4 4 4 1 -3 -5 -4 -5 -9 -2 -5 -8 -11
17 20 20 21 21 21 20 20 20 19 19 18 15 14 13 14 10 10 12 12 11 9 7 5 4 4 4 4 2 2 2 -2 -2 -4 -6 -5 -7 -4 -4 -13 -14 -14 -17
15 15 15 15 15 15 16 16 17 16 12 10 10 14 18 11 8 6 4 2 0 -1 -3 -2 -4 -5 -4 -3 -0 -2 -4 -4 -5 -5 -8 -8 -7 -11 -6 -9 -14 -16 -18
12 11 10 10 10 10 10 11 11 11 9 6 6 11 13 6 3 0 -2 -5 -8 -9 -10 -10 -10 -11 -12 -11 -12 -12 -11 -11 -12 -7 -7 -9 -9 -13 -16 -14 -16 -17 -19
9 8 7 7 7 6 4 4 5 5 4 1 1 1 -1 -5 -6 -7 -9 -12 -12 -13 -14 -15 -15 -16 -17 -17 -16 -13 -12 -9 -9 -9 -10 -11 -12 -12 -16 -16 -17 -18 -18
4 3 2 1 1 1 0 -0 -1 -2 -4 -7 -10 -10 -9 -12 -13 -12 -13 -15 -16 -19 -20 -20 -20 -19 -20 -20 -20 -19 -17 -15 -17 -11 -9 -10 -10 -10 -13 -16 -15 -14 -11
-0 -1 -2 -3 -3 -4 -4 -6 -7 -10 -11 -9 -12 -11 -14 -14 -15 -17 -18 -18 -19 -19 -18 -19 -19 -18 -17 -18 -19 -19 -16 -3 -14 -15 -16 -14 -14 -12 -13 -14 -16 -14 -12
-1 -2 -3 -3 -4 -5 -5 -5 -8 -11 -12 -12 -13 -15 -15 -15 -16 -17 -18 -19 -18 -19 -20 -20 -19 -16 -17 -15 -15 -13 -11 -2 -8 -8 -14 -14 -15 -13 -14 -14 -14 -14 -15

GFSGL_sfc_dewp_075.txt.gz
Dewpoint
42 42 43 45 45 46 46 46 46 45 45 43 43 45 45 46 46 46 46 44 43 43 42 41 39 34 32 27 26 26 25 23 21 16 18 21 20 18 19 24 21 19 20
42 42 42 44 44 44 45 44 44 44 42 43 41 41 43 43 44 45 44 43 42 41 39 37 37 30 28 27 26 25 23 22 19 15 16 18 19 20 18 18 16 14 19
42 42 42 43 43 43 44 43 42 42 40 38 39 39 39 40 40 42 42 41 41 40 39 36 32 30 29 27 26 24 22 21 21 18 15 17 17 19 18 18 19 20 18
41 42 42 42 43 43 42 42 41 39 37 35 35 35 34 35 36 37 38 38 38 37 35 34 32 30 30 28 25 23 23 23 21 17 16 15 15 18 18 17 18 20 19
40 41 41 41 41 41 39 38 37 36 35 33 32 31 31 32 33 34 35 35 34 32 32 31 30 29 30 28 25 25 23 22 20 20 17 15 16 18 16 19 16 18 20
39 39 40 38 37 37 37 36 35 33 32 31 30 30 30 29 31 35 33 33 32 30 28 27 28 30 30 29 29 28 22 22 22 22 20 19 17 18 19 19 20 20 18
33 33 34 34 34 35 35 34 34 32 30 30 29 28 29 29 31 34 34 30 30 29 28 26 27 28 29 29 30 28 26 26 23 23 23 22 20 19 20 20 21 21 20
31 31 31 32 33 32 31 32 30 29 28 27 27 26 28 27 29 34 34 28 28 27 26 26 28 29 31 29 27 28 27 27 29 29 28 27 21 22 24 25 24 23 22
31 31 31 31 31 30 30 29 27 25 24 24 25 25 27 27 29 33 33 27 26 25 25 29 30 30 32 31 28 27 27 28 32 32 32 29 24 28 29 27 22 20 19
30 30 31 30 28 28 28 26 24 25 26 28 29 29 28 28 29 32 32 26 26 24 26 27 29 29 32 32 28 28 28 28 28 28 29 28 31 32 34 30 26 19 18
28 28 27 28 25 25 25 29 29 29 28 28 27 28 28 27 29 33 33 26 25 26 26 27 29 32 34 33 32 30 30 29 29 27 26 26 27 27 27 27 25 23 17
24 25 24 21 25 27 31 29 29 28 27 26 26 25 26 27 29 33 33 28 30 28 27 28 30 34 34 35 32 32 34 31 28 27 25 24 24 24 25 25 24 22 21
19 18 18 20 22 22 29 28 27 27 26 24 24 24 25 27 29 32 35 32 32 28 29 30 32 34 36 35 35 35 32 31 29 26 25 25 25 25 23 21 20 18 17
19 21 21 19 19 21 23 23 25 26 25 24 24 24 24 25 25 30 31 32 31 29 30 31 32 33 34 32 31 33 32 31 30 28 26 23 21 20 18 18 15 14 9
19 23 26 23 20 22 23 18 20 20 23 22 20 21 21 21 24 29 31 29 29 29 29 29 29 29 29 29 30 29 29 27 27 24 21 19 18 18 16 15 12 9 5
26 26 26 26 25 25 26 27 30 30 29 30 29 27 25 26 27 29 33 32 31 33 30 29 28 28 28 28 27 25 23 22 21 19 18 17 16 15 12 10 8 5 3
28 26 25 24 25 25 25 26 24 28 33 33 33 32 31 30 29 30 32 34 34 33 26 27 27 26 24 23 23 20 18 18 17 17 15 14 12 11 9 7 6 2 -4
26 26 24 25 26 25 24 23 23 20 20 23 30 30 33 32 31 31 33 33 27 24 24 23 21 21 19 18 18 16 12 11 11 10 8 7 8 7 5 4 3 -3 -8
22 22 23 24 24 24 24 23 21 19 18 17 19 20 21 26 26 27 26 21 17 16 16 15 14 10 8 8 6 4 3 3 3 2 -0 2 3 1 -7 -3 -0 -2 -7
19 20 20 21 21 21 21 20 19 18 15 14 14 13 13 13 10 9 9 9 8 5 5 4 -4 -5 -5 -3 -4 -3 -4 -5 -5 -6 -6 -4 -7 -9 -8 -9 -8 -7 -10
15 15 16 15 15 16 16 16 15 13 11 12 12 18 17 9 6 4 2 -0 -2 -4 -5 -6 -7 -8 -9 -10 -9 -9 -10 -8 -11 -15 -16 -16 -15 -16 -11 -4 -8 -10 -13
12 12 12 11 11 10 10 11 11 10 9 8 7 10 13 5 3 -0 -4 -8 -11 -11 -13 -11 -12 -14 -15 -14 -16 -16 -17 -17 -20 -18 -18 -17 -14 -14 -14 -12 -10 -10 -15
10 9 8 7 7 6 5 5 5 4 3 2 2 0 -2 -6 -8 -9 -11 -14 -14 -14 -16 -17 -17 -17 -21 -21 -21 -18 -18 -18 -16 -17 -14 -14 -13 -13 -14 -12 -14 -15 -15
6 5 4 3 2 1 0 -1 -2 -2 -3 -7 -10 -10 -9 -12 -13 -14 -15 -18 -17 -21 -21 -21 -22 -21 -23 -24 -26 -25 -24 -22 -24 -18 -16 -16 -15 -16 -19 -18 -14 -13 -11
3 1 0 -1 -1 -2 -3 -4 -5 -6 -8 -6 -10 -9 -13 -14 -16 -19 -20 -20 -21 -22 -20 -22 -23 -22 -22 -21 -22 -23 -23 -8 -19 -20 -24 -20 -18 -17 -18 -14 -13 -11 -10
-0 -1 -2 -3 -5 -6 -7 -7 -8 -8 -10 -11 -12 -15 -15 -16 -17 -20 -21 -22 -21 -21 -22 -23 -23 -21 -20 -18 -18 -14 -14 -6 -11 -12 -23 -21 -19 -19 -17 -14 -13 -11 -12